Location: Risskov
(56.1972°N, 10.2480°E)
Time: 22:59:18
(UTC+00:00)

Cosmos 1420 Rocket - Pass Details

Date: 05 July 2020
Orbit: 754 x 781 km, 74.0° (Epoch: 03 August)

Event Time Altitude Azimuth Distance (km) Brightness Sun altitude
Rises 22:48:36 0° 330° (NNW) 3,249 8.7 -10.8°
Reaches altitude 10° 22:51:00 10° 327° (NNW) 2,323 7.6 -10.8°
Maximum altitude 22:56:11 62° 248° (WSW) 871 4.2 -10.9°
Enters shadow 23:00:34 15° 170° (S) 2,011 5.5 -11.0°
